Vorticity
nan nan nan nan nan nan nan nan nan nan nan nan nan nan nan nan nan nan nan nan nan nan nan nan nan nan nan nan nan nan nan nan nan nan nan nan nan nan nan nan nan nan nan nan nan nan nan nan nan nan nan nan nan nan nan nan nan nan nan nan nan nan nan nan nan nan nan nan nan nan nan nan nan nan nan nan nan nan nan nan nan nan nan nan nan nan
nan 9 10 10 9 9 9 8 8 8 8 8 9 9 9 9 10 10 11 11 11 11 11 10 9 7 6 5 8 9 10 10 10 9 8 7 6 5 4 4 4 3 3 3 3 3 3 3 4 4 4 4 5 5 5 6 6 6 6 6 6 7 7 7 8 8 8 8 8 7 7 7 6 6 6 6 6 5 5 5 5 5 5 5 6 nan
nan 8 9 9 9 9 10 8 7 8 8 8 8 8 9 9 10 10 10 10 11 11 11 11 10 8 6 6 6 7 8 8 8 7 6 6 5 4 4 4 3 3 3 3 3 3 3 3 3 3 4 4 4 5 5 6 6 6 6 6 6 6 6 7 7 7 7 6 6 6 6 6 7 8 8 8 7 7 6 5 6 5 6 6 6 nan
nan 9 9 8 8 9 10 9 8 8 9 8 8 9 9 9 9 10 10 10 10 10 10 11 10 9 7 6 5 6 7 7 7 6 5 5 5 4 4 3 3 3 3 3 3 3 3 3 3 4 4 4 5 5 5 6 6 7 7 7 7 7 7 7 6 6 6 5 5 5 5 6 7 7 8 8 8 8 7 6 6 6 6 6 7 nan
nan 10 9 8 8 8 8 8 8 8 9 9 9 9 9 9 9 9 9 10 10 10 10 10 10 9 8 7 7 7 6 6 6 5 5 5 5 4 4 3 3 3 3 3 3 3 3 4 4 4 5 5 6 6 6 7 7 8 8 8 8 8 7 7 7 7 6 6 6 5 5 5 6 6 7 7 7 7 7 7 6 6 6 7 7 nan
nan 9 9 9 9 8 8 8 8 9 10 10 10 10 10 9 9 9 9 9 10 9 10 9 10 10 9 9 9 7 6 5 5 5 5 5 4 4 3 3 3 3 3 4 4 5 5 5 6 6 7 7 8 8 9 9 9 10 10 9 9 9 9 8 8 8 8 7 7 6 6 5 5 5 5 6 6 7 7 7 7 7 7 8 8 nan
nan 8 9 9 10 9 9 9 9 10 10 10 10 10 10 10 9 9 9 9 9 9 9 9 9 10 10 10 10 9 7 6 6 5 5 5 4 4 3 3 3 4 5 6 6 7 7 7 8 9 9 10 10 10 11 12 12 12 12 11 11 10 10 10 9 9 9 8 8 8 7 6 6 5 5 5 5 6 7 7 8 8 8 9 10 nan
nan 8 8 9 9 9 10 10 10 11 10 10 10 10 9 9 9 9 9 9 9 9 9 9 9 9 9 10 10 10 9 9 7 7 6 5 5 5 4 4 5 6 7 8 9 9 9 10 11 11 12 12 12 12 13 14 14 14 13 13 12 11 11 11 10 10 10 9 9 8 8 7 7 6 5 5 5 6 7 7 8 9 10 10 11 nan
nan 9 9 9 9 9 9 9 9 10 11 11 10 10 10 9 10 10 10 9 9 9 9 9 9 9 9 9 9 9 10 9 8 8 7 7 5 5 5 7 8 9 9 9 9 10 10 12 12 13 13 13 13 13 14 15 15 15 14 13 13 12 12 11 11 10 10 10 9 9 8 8 7 7 6 6 6 7 8 8 9 10 10 11 11 nan
nan 9 9 9 9 10 10 9 9 9 11 11 11 11 10 9 10 10 10 9 8 9 9 9 8 8 8 9 9 9 8 6 6 6 8 8 7 8 9 10 11 9 9 10 9 9 10 12 13 14 13 12 12 13 13 14 14 14 13 13 13 12 12 11 11 10 10 10 9 9 8 8 8 8 7 7 8 8 9 10 10 10 10 10 10 nan
nan 9 9 9 10 11 11 10 9 8 9 10 10 9 9 9 10 10 9 9 8 9 10 10 9 8 8 8 8 9 8 6 5 5 7 8 10 12 13 14 13 11 10 10 9 9 10 12 13 13 13 12 12 12 12 12 12 12 12 12 12 12 11 11 11 11 10 10 10 9 9 9 9 9 9 9 10 10 10 10 10 10 10 10 10 nan
nan 9 9 9 9 10 10 10 10 9 9 10 9 8 8 10 11 10 9 8 8 8 9 10 10 10 10 9 8 9 9 8 7 7 8 9 11 12 13 12 11 11 11 10 9 8 9 12 13 13 12 11 11 11 11 10 9 9 9 10 10 11 11 11 11 11 11 11 11 10 10 10 10 11 11 11 11 11 11 10 10 10 10 10 9 nan
nan 10 10 10 10 9 9 9 9 9 10 11 10 9 7 8 10 10 10 10 9 9 9 9 10 10 11 10 9 9 9 9 9 9 9 9 10 11 12 10 9 8 8 9 8 6 7 11 13 13 12 12 11 10 9 8 6 6 6 7 8 9 10 10 10 10 11 11 11 11 12 11 11 11 11 11 11 11 10 10 9 9 9 9 9 nan
nan 10 10 10 10 10 10 10 10 9 9 10 10 10 8 8 9 9 10 10 10 10 10 9 9 9 9 10 10 10 9 9 9 9 9 10 10 11 10 10 9 8 8 8 8 7 8 12 12 10 10 12 10 9 6 5 4 4 5 6 7 8 8 8 9 9 9 10 10 11 11 11 11 11 11 11 10 10 9 9 9 8 9 9 9 nan
nan 10 10 10 9 9 9 10 10 10 10 9 9 9 10 9 10 9 9 9 10 11 10 10 10 10 9 9 9 10 10 9 9 8 9 11 11 11 11 10 9 9 8 8 8 8 11 13 12 9 9 8 6 3 1 2 1 4 6 6 7 8 8 8 8 8 8 8 9 10 10 10 10 10 9 9 9 9 9 9 8 8 8 8 8 nan
nan 10 10 10 9 9 9 10 10 10 9 9 9 9 10 10 10 10 9 9 10 10 9 10 10 10 9 10 9 10 10 9 9 8 9 10 11 12 11 9 8 8 8 9 9 9 11 11 11 10 7 3 1 0 3 3 4 6 8 9 9 9 9 9 8 8 8 8 8 9 9 9 9 9 9 8 8 8 8 8 8 8 8 8 8 nan
nan 10 10 10 9 9 10 10 10 10 9 9 10 10 10 10 9 10 9 9 10 10 10 10 10 9 9 9 9 10 10 10 9 9 9 10 11 11 11 10 9 8 9 9 9 10 10 10 10 9 5 -0 0 3 6 7 8 9 9 10 11 11 10 10 10 9 9 8 8 8 8 9 9 9 8 8 8 8 8 8 8 8 8 8 8 nan
nan 10 10 10 10 9 10 9 10 10 10 10 9 10 10 10 10 10 10 10 10 10 10 10 10 9 8 9 9 10 10 10 9 9 9 10 10 11 11 10 10 9 9 9 9 10 10 10 8 4 -2 -1 4 7 9 10 10 10 10 11 11 12 12 12 11 11 10 10 9 9 9 9 9 9 9 9 8 8 8 8 8 8 8 8 8 nan
nan 10 10 10 10 10 10 9 10 10 10 10 10 9 9 10 11 11 10 11 11 10 10 9 9 9 9 8 9 11 10 8 8 8 8 10 10 10 10 10 10 10 10 9 9 10 10 9 6 2 -0 4 8 10 11 11 10 10 10 11 12 13 13 13 13 12 11 11 10 10 10 9 9 9 9 9 9 9 8 8 8 8 9 9 9 nan
nan 10 9 10 9 9 9 10 10 11 11 11 10 10 9 9 9 10 10 11 11 11 10 9 8 8 9 9 8 9 9 8 8 9 10 11 10 10 10 10 10 9 9 10 10 10 10 9 7 5 5 8 10 12 13 11 10 9 10 12 13 15 15 15 14 14 13 12 12 11 11 11 10 10 10 10 10 9 9 9 9 9 9 9 9 nan
nan 10 9 10 9 9 10 10 11 12 12 11 10 10 9 9 9 9 9 10 10 10 9 9 9 9 9 9 8 9 9 8 9 10 11 11 11 10 10 10 9 9 10 11 11 10 10 9 9 5 3 5 10 13 13 11 9 9 11 13 14 15 16 16 16 15 15 14 14 13 13 12 12 11 11 11 11 10 10 9 9 9 9 9 9 nan
nan 11 12 11 11 11 12 12 11 11 11 10 10 10 9 9 9 9 9 9 9 9 9 9 10 9 8 8 9 11 11 8 10 10 10 10 10 11 11 10 9 9 10 11 10 10 9 9 7 3 1 6 12 15 14 11 9 9 10 12 13 14 14 14 15 16 16 16 15 15 14 13 13 13 12 12 12 11 11 10 9 9 9 8 8 nan
nan 13 13 13 13 13 12 11 10 10 10 11 11 11 10 9 8 8 9 10 10 10 10 10 9 9 8 9 10 12 11 10 10 9 9 9 9 10 10 9 8 9 10 10 10 9 9 9 8 6 5 9 15 16 13 10 8 8 10 10 10 10 10 10 11 12 13 14 14 14 13 13 13 13 13 13 13 12 11 10 9 9 8 7 7 nan
nan 13 12 11 12 12 12 11 11 10 10 11 11 12 11 10 9 9 10 10 10 10 9 9 9 10 11 12 12 12 11 11 9 9 9 9 9 9 8 8 8 10 11 10 9 8 9 10 9 10 10 12 16 15 10 7 7 7 8 8 8 7 7 7 8 8 9 10 10 10 11 10 10 11 11 12 12 11 10 9 9 9 8 7 7 nan
nan 12 11 11 12 12 13 13 12 11 10 10 10 10 11 11 11 11 11 10 10 9 9 9 10 11 12 13 12 11 11 11 11 10 9 9 10 9 9 9 10 10 10 10 9 8 8 9 10 11 12 14 13 11 7 6 6 7 7 7 7 6 6 7 7 7 8 8 8 8 8 8 8 8 9 9 10 10 9 8 8 8 8 8 8 nan
nan 13 13 12 12 11 10 9 8 8 7 7 7 7 9 10 11 10 10 11 11 10 9 9 10 10 11 11 11 10 10 11 12 11 10 9 10 10 10 11 10 10 10 9 9 7 7 9 11 11 12 11 10 8 6 6 7 8 8 7 7 8 8 8 9 9 9 9 9 9 9 8 8 8 8 8 8 8 8 8 8 8 8 9 11 nan
nan 11 11 9 8 6 5 4 3 3 3 3 3 3 6 8 9 8 9 11 12 12 10 8 9 9 10 11 10 10 11 11 10 10 10 10 9 9 10 10 10 9 11 11 9 7 8 11 12 11 10 10 8 7 6 7 8 9 9 9 9 10 10 10 11 11 11 11 11 10 10 10 9 9 9 8 8 8 8 8 8 8 10 14 18 nan
nan 7 6 6 5 3 2 2 2 1 1 2 3 4 6 8 8 8 9 10 11 11 10 10 9 9 10 10 10 10 11 11 10 10 11 10 9 9 9 9 9 9 11 11 11 10 13 15 14 12 10 10 9 7 7 8 9 11 11 11 11 11 12 12 12 13 12 12 12 11 11 11 10 10 10 10 9 9 9 8 9 11 16 19 19 nan
nan 6 5 4 4 3 3 4 6 6 5 6 7 9 9 10 10 9 9 9 9 9 10 11 10 10 9 9 10 10 10 10 10 10 11 10 9 9 9 9 9 9 11 13 14 14 15 14 12 11 10 10 10 9 8 9 12 13 13 13 13 12 12 11 12 12 12 12 12 11 11 11 12 12 11 11 11 10 10 9 12 16 21 19 16 nan
nan 9 8 7 7 8 9 10 11 12 11 11 12 14 14 13 11 10 9 8 9 10 10 10 10 10 9 10 10 10 10 10 10 11 11 9 9 9 10 10 9 9 10 13 14 13 11 10 10 10 10 9 10 10 9 11 13 13 13 13 14 12 9 9 10 11 11 11 12 12 12 13 13 14 13 13 13 12 11 12 14 16 18 15 13 nan
nan 10 9 9 11 12 13 12 12 13 14 14 16 17 17 14 12 10 10 10 10 11 11 10 10 10 9 9 10 10 9 10 11 11 11 10 10 10 10 10 10 10 10 11 11 11 10 10 9 9 8 8 9 9 10 10 12 13 13 12 12 9 6 7 9 10 11 11 11 11 13 14 14 15 15 15 15 14 13 14 14 14 13 12 10 nan
nan 11 9 9 10 11 11 11 11 12 13 14 14 14 14 12 11 10 10 11 10 11 11 10 10 10 10 10 9 8 8 10 12 12 10 10 10 11 10 10 9 11 11 11 11 10 9 9 8 7 7 8 9 10 10 11 12 12 12 12 10 7 6 9 11 13 12 11 11 12 12 12 13 14 14 15 15 15 15 15 15 14 10 11 10 nan
nan 11 10 9 10 10 10 10 10 11 11 11 11 11 12 12 11 10 10 11 11 11 10 10 10 10 10 10 9 8 8 11 14 14 10 8 10 11 10 10 10 10 11 11 10 9 8 6 6 7 7 9 10 10 10 11 12 13 13 12 10 8 9 12 13 14 12 12 13 13 12 13 13 13 13 14 14 14 15 15 15 13 8 9 9 nan
nan 9 9 9 9 9 10 10 11 11 11 10 10 10 11 11 11 11 10 10 11 12 11 10 10 10 10 9 9 9 9 10 12 15 12 9 10 10 10 9 10 10 11 10 9 9 9 7 6 7 8 10 11 11 10 10 11 12 11 10 10 9 10 11 12 12 12 13 14 13 14 15 14 14 14 13 12 12 12 14 14 12 10 8 6 nan
nan 9 9 9 9 9 9 10 11 12 11 11 11 11 11 10 10 10 10 10 11 11 11 11 11 10 9 9 9 9 8 7 7 12 14 13 11 10 10 10 10 10 10 10 9 9 9 8 7 7 8 10 11 12 11 10 10 10 9 9 9 10 10 9 9 10 12 12 12 12 14 14 15 15 13 9 8 8 9 11 12 12 12 9 6 nan
nan 9 10 10 10 10 10 11 11 11 11 11 11 12 11 10 10 10 10 10 10 10 10 11 11 11 10 9 8 8 8 6 5 9 13 15 13 11 10 10 10 9 9 9 9 9 9 8 8 8 10 11 11 11 11 10 9 8 8 9 9 10 9 9 9 10 11 10 11 11 11 12 12 12 8 5 6 8 10 11 12 12 13 11 10 nan
nan 10 10 11 12 12 12 11 11 11 11 11 12 12 11 10 10 10 10 11 10 10 10 10 10 10 9 8 8 7 7 6 6 7 11 14 12 10 9 9 9 8 8 8 9 9 9 9 9 11 13 11 10 8 7 8 8 9 9 10 9 9 9 10 11 11 11 10 10 9 9 9 10 10 8 9 13 16 17 17 16 14 13 15 13 nan
nan 10 11 11 11 12 12 11 11 11 11 11 12 13 12 11 11 10 10 11 11 10 9 9 9 9 9 8 8 7 7 7 8 8 10 11 10 9 8 8 8 8 8 9 9 9 9 9 10 11 12 11 8 7 8 9 9 10 10 10 10 10 10 11 11 11 10 9 8 8 9 10 10 11 12 16 19 19 19 19 17 15 17 20 19 nan
nan 10 10 10 11 11 11 11 11 11 11 12 13 13 12 11 11 10 11 11 11 11 10 10 9 9 10 9 9 8 8 9 9 9 9 9 8 8 8 8 8 8 9 10 10 10 9 9 9 8 8 8 9 10 10 10 10 9 9 11 13 13 12 11 10 10 10 9 9 10 13 13 13 13 13 14 14 13 13 13 14 16 18 19 19 nan
nan 10 10 11 11 11 11 10 10 11 11 12 12 12 11 10 10 10 10 11 11 11 11 10 10 10 11 11 11 11 10 9 9 8 8 8 8 9 9 8 8 9 9 9 10 10 9 8 8 7 7 7 7 7 8 8 6 4 7 11 12 11 10 9 10 10 11 10 11 11 12 11 11 11 11 11 10 10 10 10 11 12 13 13 14 nan
nan 9 10 11 12 12 11 11 10 11 11 11 10 10 10 9 9 9 9 9 10 10 11 10 10 10 11 12 13 14 13 10 10 7 7 9 8 8 8 9 9 9 9 9 9 10 9 8 8 9 9 8 7 8 9 7 5 4 9 12 10 8 7 9 12 13 12 10 10 9 7 8 9 11 10 10 10 9 8 9 8 8 10 12 12 nan
nan 10 10 10 11 11 11 11 11 11 11 10 10 10 9 9 9 9 9 9 9 10 11 10 10 9 10 11 13 15 16 15 14 11 10 10 9 8 7 8 9 9 9 9 10 10 10 8 8 9 9 9 9 10 9 8 8 10 13 11 8 8 12 15 16 13 10 8 7 7 9 12 11 10 9 10 10 9 10 9 6 5 9 11 10 nan
nan 11 11 10 10 10 10 10 10 10 10 9 10 10 10 10 10 10 9 9 9 10 10 11 11 11 10 10 11 13 16 18 19 18 14 12 11 9 8 8 8 8 8 8 9 10 12 11 10 10 10 9 9 8 7 9 10 12 12 8 8 11 14 14 12 9 7 7 8 10 12 12 11 10 10 10 11 11 11 10 10 11 12 11 9 nan
nan 10 11 10 10 9 9 10 10 10 10 9 9 10 11 12 11 10 8 9 10 10 10 11 11 11 10 10 10 11 12 15 19 22 21 14 9 8 9 9 8 7 7 6 8 9 10 12 12 11 10 9 9 8 8 8 9 10 9 9 9 10 8 7 6 7 7 9 11 12 12 10 10 10 11 12 12 11 11 12 13 13 13 11 10 nan
nan 10 10 10 10 10 9 10 10 10 10 10 10 10 12 12 12 10 8 8 10 10 10 10 10 9 9 10 10 10 10 12 16 20 24 22 15 8 5 7 7 7 7 6 6 7 7 9 10 10 10 10 9 8 8 8 8 9 9 10 11 12 9 7 7 9 9 10 11 12 12 10 9 10 11 11 10 10 10 11 10 10 11 11 11 nan
nan 10 10 10 10 10 10 9 9 10 10 10 10 11 12 13 12 11 10 9 9 10 10 11 10 9 8 8 9 10 11 11 13 15 18 20 18 14 10 8 7 7 8 9 8 7 6 6 7 7 8 9 10 10 9 9 9 10 11 12 12 12 11 11 11 10 10 9 10 11 12 10 10 10 9 9 9 10 12 12 11 11 11 11 11 nan
nan 9 9 9 10 10 11 10 10 10 10 10 11 11 11 12 11 11 10 10 10 10 10 10 10 9 9 8 9 9 10 10 11 11 13 15 15 13 13 13 12 9 7 8 8 8 7 7 6 5 6 7 9 10 11 11 11 10 10 11 11 11 11 11 11 10 10 10 10 11 11 10 10 9 8 9 10 11 12 12 12 12 11 11 11 nan
nan 10 9 9 9 10 10 11 11 11 10 10 11 11 12 12 10 7 9 11 10 10 10 9 9 10 10 10 9 9 8 8 9 10 10 12 13 13 12 12 13 13 12 11 10 10 10 9 7 5 4 5 6 8 10 11 12 11 11 10 10 9 10 10 10 10 10 10 10 10 9 9 8 8 9 10 10 9 9 10 12 12 12 12 11 nan
nan 10 10 9 9 9 10 10 10 10 10 10 10 10 13 15 14 8 7 10 10 10 10 9 9 9 9 10 10 10 9 9 10 11 10 10 11 12 13 12 11 12 13 14 14 14 15 16 14 10 5 3 3 5 8 10 11 11 11 11 11 10 11 10 10 10 11 11 11 10 9 9 9 9 10 9 8 7 8 10 11 12 13 13 12 nan
nan 10 10 9 9 9 10 10 10 10 10 10 10 10 11 13 14 12 11 10 10 10 10 10 9 8 8 8 9 10 10 10 10 11 10 10 10 11 11 12 11 10 11 12 13 13 15 18 22 22 17 7 2 1 6 9 10 11 11 11 11 11 12 11 11 10 10 10 12 13 11 10 11 11 10 10 9 8 9 11 11 12 13 13 12 nan
nan nan nan nan nan nan nan nan nan nan nan nan nan nan nan nan nan nan nan nan nan nan nan nan nan nan nan nan nan nan nan nan nan nan nan nan nan nan nan nan nan nan nan nan nan nan nan nan nan nan nan nan nan nan nan nan nan nan nan nan nan nan nan nan nan nan nan nan nan nan nan nan nan nan nan nan nan nan nan nan nan nan nan nan nan nan
CAPE
nan nan nan nan nan nan nan nan nan nan nan nan nan nan nan nan nan nan nan nan nan nan nan nan nan nan nan 0 2 2 2 3 3 3 3 2 1 1 0 0 0 nan nan nan nan nan nan nan nan nan nan nan nan nan nan nan nan 0 2 4 4 7 9 11 11 14 15 16 14 14 11 8 7 7 3 3 4 4 7 10 10 9 9 8 8 8
nan nan nan nan nan nan nan nan nan nan nan nan nan nan nan nan nan nan nan nan nan nan nan nan nan nan nan nan 1 1 2 2 2 2 1 1 0 0 0 nan nan nan nan nan nan nan nan nan nan nan nan nan nan nan nan nan nan nan nan 0 0 3 5 6 6 8 8 11 9 9 6 3 2 2 2 3 6 6 10 12 12 12 10 9 9 8
nan nan nan nan nan nan nan nan nan nan nan nan nan nan nan nan nan nan nan nan nan nan nan nan nan nan nan nan nan nan 0 0 0 0 0 0 0 0 nan nan nan nan nan nan nan nan nan nan nan nan nan nan nan nan nan nan nan nan nan nan nan nan 1 2 2 2 3 3 4 4 1 0 0 0 1 4 9 9 11 13 13 11 9 10 10 10
nan nan nan nan nan nan nan nan nan nan nan nan nan nan nan nan nan nan nan nan nan nan nan nan nan nan nan nan nan nan nan nan nan nan nan nan nan nan nan nan nan nan nan nan nan nan nan nan nan nan nan nan nan nan nan nan nan nan nan nan nan nan nan 0 0 0 0 0 0 0 0 nan nan nan 1 4 9 9 10 10 10 8 9 9 9 9
nan nan nan nan nan nan nan nan nan nan nan nan nan nan nan nan nan nan nan nan nan nan nan nan nan nan nan nan nan nan nan nan nan nan nan nan nan nan nan nan nan nan nan nan nan nan nan nan nan nan nan nan nan nan nan nan nan nan nan nan nan nan nan nan nan nan 0 0 0 0 0 0 0 0 1 4 7 7 7 9 9 8 8 8 8 10
nan nan nan nan nan nan nan nan nan nan nan nan nan nan nan nan nan nan nan nan nan nan nan nan nan nan nan nan nan nan nan nan nan nan nan nan nan nan nan nan nan nan nan nan nan nan nan nan nan nan nan nan nan nan nan nan nan nan nan nan nan nan nan nan nan nan nan 0 0 0 0 1 1 1 1 2 4 4 5 7 7 7 7 7 7 7
nan nan nan nan nan nan nan nan nan nan nan nan nan nan nan nan nan nan nan nan nan nan nan nan nan nan nan nan nan nan nan nan nan nan nan nan nan nan nan nan nan nan nan nan nan nan nan nan nan nan nan nan nan nan nan nan nan nan nan nan nan nan nan nan nan nan nan 0 0 0 0 0 0 0 1 3 3 3 4 6 6 6 6 6 6 6
nan nan nan nan nan nan nan nan nan nan nan nan nan nan nan nan nan nan nan nan nan nan nan nan nan nan nan nan nan nan nan nan nan nan nan nan nan nan nan nan nan nan nan nan nan nan nan nan nan nan nan nan nan nan nan nan nan nan nan nan nan nan nan nan nan nan nan 0 1 1 2 2 3 3 5 6 6 6 5 5 5 5 6 6 6 6
nan nan nan nan nan nan nan nan nan nan nan nan nan nan nan nan nan nan nan nan nan nan nan nan nan nan nan nan nan nan nan nan nan nan nan nan nan nan nan nan nan nan nan nan nan nan nan nan nan nan nan nan nan nan nan nan nan nan nan nan nan nan nan nan nan nan nan 0 2 2 3 4 5 5 6 6 5 5 4 3 3 4 5 7 7 8
nan nan nan nan nan nan nan nan nan nan nan nan nan nan nan nan nan nan nan nan nan nan nan nan nan nan nan nan nan nan nan nan nan nan nan nan nan nan nan nan nan nan nan nan nan nan nan nan nan nan nan nan nan nan nan nan nan nan nan nan nan nan nan nan nan nan nan nan 0 0 1 3 3 3 4 3 3 3 4 4 4 4 5 8 8 10
nan nan nan nan nan nan nan nan nan nan nan nan nan nan nan nan nan nan nan nan nan nan nan nan nan nan nan nan nan nan nan nan nan nan nan nan nan nan nan nan nan nan nan nan nan nan nan nan nan nan nan nan nan nan nan nan nan nan nan nan nan nan nan nan nan nan nan nan nan nan nan 1 1 1 2 2 3 3 4 4 4 5 6 9 9 12
nan nan nan nan nan nan nan nan nan nan nan nan nan nan nan nan nan nan nan nan nan nan nan nan nan nan nan nan nan nan nan nan nan nan nan nan nan nan nan nan nan nan nan nan nan nan nan nan nan nan nan nan nan nan nan nan nan nan nan nan nan nan nan nan nan nan nan nan nan nan nan 0 1 1 1 2 3 3 4 5 5 6 7 10 10 14
nan nan nan nan nan nan nan nan nan nan nan nan nan nan nan nan nan nan nan nan nan nan nan nan nan nan nan nan nan nan nan nan nan nan nan nan nan nan nan nan nan nan nan nan nan nan nan nan nan nan nan nan nan nan nan nan nan nan nan nan nan 0 0 1 1 1 1 1 0 0 1 2 2 2 2 3 4 4 5 7 7 7 9 11 11 14
nan nan nan nan nan nan nan nan nan nan nan nan nan nan nan nan nan nan nan nan nan nan nan nan nan nan nan nan nan nan nan nan nan nan nan nan nan nan nan nan nan nan nan nan nan nan nan nan nan nan nan nan nan nan nan nan nan nan nan nan nan nan 0 1 1 2 3 4 3 3 4 3 3 3 3 4 5 5 6 8 8 10 12 13 13 14
nan nan nan nan nan nan nan nan nan nan nan nan nan nan nan nan nan nan nan nan nan nan nan nan nan nan nan nan nan nan nan nan nan nan nan nan nan nan nan nan nan nan nan nan nan nan nan nan nan nan nan nan nan nan nan nan nan nan nan nan nan nan nan 0 0 1 2 3 3 3 4 4 4 4 4 5 5 5 7 9 9 11 14 13 13 15
nan nan nan nan nan nan nan nan nan nan nan nan nan nan nan nan nan nan nan nan nan nan nan nan nan nan nan nan nan nan nan nan nan nan nan nan nan nan nan nan nan nan nan nan nan nan nan nan nan nan nan nan nan nan nan nan nan nan nan nan nan 0 0 0 0 0 1 2 3 3 4 6 5 5 6 6 6 6 8 10 10 11 13 13 13 15
nan nan nan nan nan nan nan nan nan nan nan nan nan nan nan nan nan nan nan nan nan nan nan nan nan nan nan nan nan nan nan nan nan nan nan nan nan nan nan nan nan nan nan nan nan nan nan nan nan nan nan nan nan nan nan nan nan nan 0 0 0 0 0 0 0 0 0 1 3 3 4 5 6 6 6 6 7 7 8 9 9 11 12 13 13 14
nan nan nan nan nan nan nan nan nan nan nan nan nan nan nan nan nan nan nan nan nan nan nan nan nan nan nan nan nan nan nan nan nan nan nan nan nan nan nan nan nan nan nan nan nan nan nan nan nan nan nan nan nan nan nan 0 0 0 0 1 1 1 1 1 1 0 0 1 2 2 3 5 6 6 6 6 6 6 7 8 8 10 11 13 13 14
nan nan nan nan nan nan nan nan nan nan nan nan nan nan nan nan nan nan nan nan nan nan nan nan nan nan nan nan nan nan nan nan nan nan nan nan nan nan nan nan nan nan nan nan nan nan nan nan nan nan nan nan nan nan nan 0 0 0 0 1 1 1 1 1 1 1 1 1 2 2 3 3 5 5 7 7 7 7 7 7 7 9 11 13 13 14
nan nan nan nan nan nan nan nan nan nan nan nan nan nan nan nan nan nan nan nan nan nan nan nan nan nan nan nan nan nan nan nan nan nan nan nan nan nan nan nan nan nan nan nan nan nan nan nan nan nan nan nan nan nan nan nan nan nan 0 1 1 1 2 1 1 1 1 1 1 1 2 3 4 4 5 7 7 7 7 8 8 10 12 13 13 13
nan nan nan nan nan nan nan nan nan nan nan nan nan nan nan nan nan nan nan nan nan nan nan nan nan nan nan nan nan nan nan nan nan nan nan nan nan nan nan nan nan nan nan nan nan nan nan nan nan nan nan nan nan nan nan nan nan nan 0 3 3 4 3 2 2 1 1 1 2 2 3 3 3 3 4 6 6 6 7 8 8 11 11 12 12 12
nan nan nan nan nan nan nan nan nan nan nan nan nan nan nan nan nan nan nan nan nan nan nan nan nan nan nan nan nan nan nan nan nan nan nan nan nan nan nan nan nan nan nan nan nan nan nan nan nan nan nan nan nan nan nan nan nan nan 1 3 3 5 4 5 5 4 4 4 3 3 3 3 4 4 4 5 6 6 6 8 8 10 10 9 9 9
nan nan nan nan nan nan nan nan nan nan nan nan nan nan nan nan nan nan nan nan nan nan nan nan nan nan nan nan nan nan nan nan nan nan nan nan nan nan nan nan nan nan nan nan nan nan nan nan nan nan nan nan nan nan nan nan nan nan 1 3 3 4 4 4 4 5 6 5 4 4 4 4 4 4 5 6 5 5 6 6 6 7 7 7 7 7
nan nan nan nan nan nan nan nan nan nan nan nan nan nan nan nan nan nan nan nan nan nan nan nan nan nan nan nan nan nan nan nan nan nan nan nan nan nan nan nan nan nan nan nan nan nan nan nan nan nan nan nan nan nan nan nan nan nan 0 1 1 2 2 2 2 2 4 5 6 6 6 7 7 7 7 6 6 6 6 6 6 6 6 6 6 6
nan nan nan nan nan nan nan nan nan nan nan nan nan nan nan nan nan nan nan nan nan nan nan nan nan nan nan nan nan nan nan nan nan nan nan nan nan nan nan nan nan nan nan nan nan nan nan nan nan nan nan nan nan nan nan nan nan nan nan nan nan 0 0 0 0 1 1 3 4 4 6 7 8 8 8 7 7 7 7 8 8 7 7 7 7 7
nan nan nan nan nan nan nan nan nan nan nan nan nan nan nan nan nan nan nan nan nan nan nan nan nan nan nan nan nan nan nan nan nan nan nan nan nan nan nan nan nan nan nan nan nan nan nan nan nan nan nan nan nan nan nan nan nan nan nan nan nan 0 0 0 0 0 0 1 2 2 4 6 6 6 7 8 8 8 8 8 8 8 7 8 8 8
nan nan nan nan nan nan nan nan nan nan nan nan nan nan nan nan nan nan nan nan nan nan nan nan nan nan nan nan nan nan nan nan nan nan nan nan nan nan nan nan nan nan nan nan nan nan nan nan nan nan nan nan nan nan nan nan nan nan 0 0 0 1 1 1 1 1 0 1 1 1 2 3 5 5 7 8 8 8 8 9 9 9 8 9 9 8
nan nan nan nan nan nan nan nan nan nan nan nan 0 0 nan nan nan nan nan nan nan nan nan nan nan nan nan nan nan nan nan nan nan nan nan nan nan nan nan nan nan nan nan nan nan nan nan nan nan nan nan nan nan nan nan nan nan nan nan 0 0 0 0 1 1 1 0 0 1 1 2 3 4 4 5 6 9 9 9 10 10 10 8 1 1 nan
nan nan nan nan nan nan nan nan nan nan nan 0 2 2 nan nan nan nan nan nan nan nan nan nan nan nan nan nan nan nan nan nan nan nan nan nan nan nan nan nan nan nan nan nan nan nan nan nan nan nan nan nan nan nan nan nan nan nan 0 nan nan nan nan 0 0 1 1 1 1 1 1 2 3 3 4 5 6 6 8 9 9 9 5 nan nan nan
nan nan nan nan nan nan nan nan nan nan nan 0 1 1 nan nan nan nan nan nan nan nan nan nan nan nan nan nan nan nan nan nan nan nan nan nan nan nan nan nan nan nan nan nan nan nan nan nan nan nan nan nan nan nan nan nan nan nan nan nan nan nan nan nan nan 0 1 1 2 2 2 2 3 3 3 4 5 5 5 6 6 6 nan nan nan nan
nan nan nan nan nan nan nan nan nan nan nan nan nan nan nan nan nan nan nan nan nan nan nan nan nan nan nan nan nan nan nan nan nan nan nan nan nan nan nan nan nan nan nan nan nan nan nan nan nan nan nan nan nan nan nan nan nan nan nan nan nan nan nan nan nan nan 0 1 2 2 3 3 4 4 4 4 4 4 5 6 6 1 nan nan nan nan
nan nan nan nan nan nan nan nan nan nan nan nan nan nan nan nan nan nan nan nan nan nan nan nan nan nan nan nan nan nan nan nan nan nan nan nan nan nan nan nan nan nan nan nan nan nan nan nan nan nan nan nan nan nan nan nan nan nan nan nan nan nan nan nan nan nan nan 1 1 1 3 3 3 3 4 4 6 6 7 6 6 6 nan nan nan nan
nan nan nan nan nan nan nan nan nan nan nan nan nan nan nan nan nan nan nan nan nan nan nan nan nan nan nan nan nan nan nan nan nan nan nan nan nan nan nan nan nan nan nan nan nan nan nan nan nan nan nan nan nan nan nan nan nan nan nan nan nan nan nan nan nan nan nan nan nan nan 3 1 2 2 3 3 4 4 5 6 6 8 0 nan nan nan
nan nan nan nan nan nan nan nan nan nan nan nan nan nan nan nan nan nan nan nan nan nan nan nan nan nan nan nan nan nan nan nan nan nan nan nan nan nan nan nan nan nan nan nan nan nan nan nan nan nan nan nan nan nan nan nan nan nan nan nan nan nan nan nan nan nan nan nan nan nan nan nan nan nan 1 2 2 2 3 6 6 6 7 nan nan nan
nan nan nan nan nan nan nan nan nan nan nan nan nan nan nan nan nan nan nan nan nan nan nan nan nan nan nan nan nan nan nan nan nan nan nan nan nan nan nan nan nan nan nan nan nan nan nan nan nan nan nan nan nan nan nan nan nan nan nan nan nan nan nan nan nan nan nan nan nan nan nan nan nan nan nan 0 2 2 4 7 7 7 7 11 11 nan
nan nan nan nan nan nan nan nan nan nan nan nan nan nan nan nan nan nan nan nan nan nan nan nan nan nan nan nan nan nan nan nan nan nan nan nan nan nan nan nan nan nan nan nan nan nan nan nan nan nan nan nan nan nan nan nan nan nan nan nan nan nan nan nan nan nan nan nan nan nan nan nan nan nan nan 2 6 6 6 7 7 7 8 8 8 7
nan nan nan nan nan nan nan nan nan nan nan nan nan nan nan nan nan nan nan nan nan nan nan nan nan nan nan nan nan nan nan nan nan nan nan nan nan nan nan nan nan nan nan nan nan nan nan nan nan nan nan nan nan nan nan nan nan nan nan nan nan nan nan nan nan nan nan nan nan nan nan nan nan nan nan 3 1 1 3 7 7 5 5 6 6 6
nan nan nan nan nan nan nan nan nan nan nan nan nan nan nan nan nan nan nan nan nan nan nan nan nan nan nan nan nan nan nan nan nan nan nan nan nan nan nan nan nan nan nan nan nan nan nan nan nan nan nan nan nan nan nan nan nan nan nan nan nan nan nan nan nan nan nan nan nan nan nan nan nan nan nan nan nan nan nan nan nan nan 3 1 1 4
nan nan nan nan nan nan nan nan nan nan nan nan nan nan nan nan nan nan nan nan nan nan nan nan nan nan nan nan nan nan nan nan nan nan nan nan nan nan nan nan nan nan nan nan nan nan nan nan nan nan nan nan nan nan nan nan nan nan nan nan nan nan nan nan nan nan nan nan nan nan nan nan nan nan nan nan nan nan nan nan nan nan nan nan nan nan
nan nan nan nan nan nan nan nan nan nan nan nan nan nan nan nan nan nan nan nan nan nan nan nan nan nan nan nan nan nan nan nan nan nan nan nan nan nan nan nan nan nan nan nan nan nan nan nan nan nan 0 nan nan nan nan nan nan nan nan nan nan nan nan nan nan nan nan nan nan nan nan nan nan nan nan nan nan nan nan nan nan nan nan nan nan nan
nan nan nan nan nan nan nan nan nan nan nan nan nan nan nan nan nan nan nan nan nan nan nan nan nan nan nan nan nan nan nan nan nan nan nan nan nan nan nan nan nan nan nan nan nan nan nan nan nan 0 0 0 0 0 nan nan nan nan 2 nan nan nan nan nan nan nan nan nan nan nan nan nan nan nan nan nan nan nan nan nan nan nan nan nan nan nan
nan nan nan nan nan nan nan nan nan nan nan nan nan nan nan nan nan nan nan nan nan nan nan nan nan nan nan nan nan nan nan nan nan nan nan nan nan nan nan nan nan nan nan nan nan nan nan 1 1 0 0 nan nan nan nan nan nan nan 0 nan nan nan nan nan nan nan nan nan nan nan nan nan nan nan nan nan nan nan nan nan nan nan nan nan nan nan
nan nan nan nan nan nan nan nan nan nan nan nan nan nan nan nan nan nan nan nan nan nan nan nan nan nan nan nan nan nan nan nan nan nan nan nan nan nan nan nan nan nan nan nan nan nan nan 2 2 0 nan nan nan nan nan nan nan nan nan nan nan nan nan nan nan nan nan nan nan nan nan nan nan nan nan nan nan nan nan nan nan 0 nan nan nan nan
nan nan nan nan nan nan nan nan nan nan nan nan nan nan nan nan nan nan nan nan nan nan nan nan nan nan nan nan nan nan nan nan nan nan nan nan nan nan nan nan nan nan nan nan nan 0 nan 0 0 nan nan 0 nan nan nan nan nan nan nan nan nan nan nan nan nan nan nan nan nan nan nan nan nan nan nan nan nan nan nan nan nan nan nan nan nan nan
nan nan nan nan nan nan nan nan nan nan nan nan nan nan nan nan nan nan nan nan nan nan nan nan nan nan nan nan nan nan nan nan nan nan nan nan nan nan nan nan nan nan nan nan nan nan nan nan nan nan nan nan nan nan nan nan nan nan nan nan nan nan nan nan nan nan nan nan nan nan nan nan nan nan nan nan nan nan nan nan nan nan nan nan nan nan
nan nan nan nan nan nan nan nan nan nan nan nan nan nan nan nan nan nan nan nan nan nan nan nan nan nan nan nan nan nan nan nan nan nan nan nan nan nan nan nan nan nan nan nan nan nan nan nan nan nan nan nan 0 0 nan nan nan nan nan nan nan nan nan nan nan nan nan nan nan nan nan nan nan nan nan nan nan nan nan nan nan nan nan nan nan nan
nan nan nan nan nan nan nan nan nan nan nan nan nan nan nan nan nan nan nan nan nan nan nan nan nan nan nan nan nan nan nan nan nan nan nan nan nan nan nan nan nan nan nan nan nan nan nan nan nan nan nan nan nan nan nan nan nan nan nan nan nan nan nan nan nan nan nan nan nan nan nan nan nan nan nan nan nan nan nan nan nan nan nan nan nan nan
nan nan nan nan nan nan nan nan nan nan nan nan nan nan nan nan nan nan nan nan nan nan nan nan nan nan nan nan nan nan nan nan nan nan nan nan nan nan nan nan nan nan nan nan nan nan nan nan nan nan nan nan nan nan nan nan nan nan nan nan nan nan nan nan nan nan nan nan nan nan nan nan nan nan nan nan nan nan nan nan nan nan nan nan nan nan
nan nan nan nan nan nan nan nan nan nan nan nan nan nan nan nan nan nan nan nan nan nan nan nan nan nan nan nan nan nan nan nan nan nan nan nan nan nan nan nan nan nan nan 0 0 0 1 1 1 0 nan nan nan nan nan nan nan nan nan nan nan nan nan nan nan nan nan nan nan nan nan nan nan nan nan nan nan nan nan nan nan nan nan nan nan nan
nan nan nan nan nan nan nan nan nan nan nan nan nan nan nan nan nan nan nan nan nan nan nan nan nan nan nan nan nan nan nan nan nan nan nan nan nan nan nan nan nan nan nan nan nan nan nan nan nan nan 0 nan nan nan nan nan nan nan nan nan nan nan nan nan nan nan nan nan nan nan nan nan nan nan nan nan nan nan 0 nan nan nan nan nan nan nan
nan nan nan nan nan nan nan nan nan nan nan nan nan nan nan nan nan nan nan nan nan nan nan nan nan nan nan nan nan nan nan nan nan nan nan nan nan nan nan nan nan nan nan nan nan nan nan nan nan nan nan 1 nan nan nan nan nan nan nan nan nan nan nan nan nan nan nan nan nan nan nan nan nan nan nan 0 2 2 1 1 1 nan nan nan nan nan